Content
SEND FEEDBACK

Daily
Averages
Monthly
Summary
French Polynesia

PAPEETE, FRENCH POLYNESIA


Home > Oceania > French Polynesia
Elevation: 7 feet     Latitude: 17 33S     Longitude: 149 36W

WEATHER
 
SELECT A DAY
Number of Records: 213,053;   Date Range: 6/30/96 - 9/29/14
 
SHARE

PRINT THIS DATA

[ ← Previous Day ]
WEATHER ALMANAC - JULY 28, 2013
[ Next Day → ]
[ °C ]   °F
Weather ElementAverageHighLow
Temperature74.1 °F80.6 °F (1:00 pm)66.2 °F (6:00 am)
Dewpoint59.4 °F62.6 °F (1:00 pm)55.4 °F (5:00 am)
Humidity59.2 %78 % (2:30 am)43 % (11:00 am)
Barometer29.98 in30.04 in (9:00 am)29.92 in (2:30 pm)
Wind Speed5.2 mph26.8 mph (2:00 pm)
Weather ElementAverage
Visibility7.9 mi
Wind DirectionSE (134.8 °)

Weather ElementTotal
Precipitation---
Cooling Degree Days8.4 (Base 65)
Growing Degree Days23.4 (Base 50)
Averaged from 54 records on July 28, 2013
WEATHER CONDITIONS BREAKOUT
WIND DIRECTION BREAKOUT
WEATHER BY HOUR - JULY 28, 2013
[ °C ]   °F
Local TimeTemperatureDewpointHumidityBarometerVisibilityWind DirectionWind SpeedGust SpeedPrecipitationEventsConditions
12:30 AM71.6 °F59.0 °F64 %30.01 in6.2 miVariable2.3 mphScattered Clouds
1:00 AM69.8 °F59.0 °F68 %30.01 in6.2 miVariable2.3 mphScattered Clouds
1:30 AM69.8 °F60.8 °F73 %30.01 in6.2 miESE (110°)3.5 mphScattered Clouds
2:00 AM69.0 °F60.0 °F66 %30.01 in12.0 miEast (90°)4.6 mphPartly Cloudy
2:00 AM69.8 °F60.8 °F73 %30.01 in6.2 miEast (90°)4.6 mphScattered Clouds
2:30 AM68.0 °F60.8 °F78 %29.98 in6.2 miEast (100°)4.6 mphScattered Clouds
3:00 AM68.0 °F59.0 °F73 %29.98 in6.2 miSSE (160°)3.5 mphPartly Cloudy
3:30 AM68.0 °F59.0 °F73 %29.98 in6.2 miSouth (170°)6.9 mph
4:00 AM68.0 °F59.0 °F73 %29.98 in6.2 miSSE (160°)6.9 mph
4:30 AM69.8 °F59.0 °F68 %29.98 in6.2 miSSE (150°)4.6 mph
5:00 AM69.0 °F56.0 °F53 %29.98 in37.0 miSSE (150°)8.9 mphClear
5:00 AM69.8 °F55.4 °F60 %29.98 in6.2 miSSE (150°)4.6 mph
5:30 AM68.0 °F57.2 °F68 %29.98 in6.2 miENE (70°)4.6 mph
6:00 AM66.2 °F57.2 °F73 %29.98 in6.2 miENE (70°)5.8 mphPartly Cloudy
6:30 AM66.2 °F57.2 °F73 %30.01 in6.2 miEast (100°)4.6 mphPartly Cloudy
7:00 AM66.2 °F57.2 °F73 %30.01 in6.2 miESE (110°)3.5 mphPartly Cloudy
7:30 AM69.8 °F59.0 °F68 %30.01 in6.2 miCalmPartly Cloudy
8:00 AM74.0 °F59.0 °F49 %30.02 in19.0 miEast (90°)2.3 mphPartly Cloudy
8:30 AM75.2 °F59.0 °F57 %30.01 in6.2 miVariable2.3 mphPartly Cloudy
9:00 AM77.0 °F59.0 °F54 %30.04 in6.2 miVariable2.3 mphPartly Cloudy
9:43 AM78.8 °F59.0 °F51 %30.04 in6.2 miSW (230°)3.5 mphPartly Cloudy
10:00 AM78.8 °F59.0 °F51 %30.04 in6.2 miSW (230°)4.6 mphPartly Cloudy
10:30 AM78.8 °F60.8 °F54 %30.01 in6.2 miWest (260°)3.5 mphPartly Cloudy
11:00 AM79.0 °F60.0 °F43 %30.02 in19.0 miWest (280°)4.6 mphScattered Clouds
11:00 AM78.8 °F60.8 °F54 %30.01 in6.2 miWest (280°)4.6 mphPartly Cloudy
11:30 AM78.8 °F60.8 °F54 %29.98 in6.2 miWNW (290°)5.8 mphPartly Cloudy
12:00 PM78.8 °F60.8 °F54 %29.98 in6.2 miWNW (300°)8.1 mphPartly Cloudy
12:30 PM78.8 °F59.0 °F51 %29.95 in6.2 miWNW (300°)8.1 mphPartly Cloudy
1:00 PM80.6 °F62.6 °F54 %29.95 in6.2 miWest (280°)10.4 mphPartly Cloudy
1:30 PM78.8 °F60.8 °F54 %29.95 in6.2 miNW (310°)11.5 mphPartly Cloudy
2:00 PM78.0 °F61.0 °F46 %29.95 in16.0 miNW (310°)26.8 mphScattered Clouds
2:00 PM78.8 °F60.8 °F54 %29.95 in6.2 miWNW (300°)15.0 mphPartly Cloudy
2:30 PM78.8 °F62.6 °F57 %29.92 in6.2 miWNW (290°)9.2 mphPartly Cloudy
3:00 PM78.8 °F59.0 °F51 %29.92 in6.2 miNW (310°)9.2 mphPartly Cloudy
3:30 PM78.8 °F59.0 °F51 %29.92 in6.2 miNorth (360°)6.9 mphPartly Cloudy
4:00 PM78.8 °F59.0 °F51 %29.92 in6.2 miVariable2.3 mphPartly Cloudy
4:30 PM78.8 °F59.0 °F51 %29.92 in6.2 miNorth (350°)4.6 mphPartly Cloudy
5:00 PM76.0 °F60.0 °F47 %29.94 in16.0 miWNW (290°)3.5 mphScattered Clouds
5:00 PM77.0 °F59.0 °F54 %29.92 in6.2 miVariable3.5 mphPartly Cloudy
5:30 PM75.2 °F59.0 °F57 %29.95 in6.2 miVariable3.5 mphPartly Cloudy
6:00 PM75.2 °F59.0 °F57 %29.95 in6.2 miVariable2.3 mphMostly Cloudy
6:30 PM75.2 °F59.0 °F57 %29.95 in6.2 miNorth (10°)4.6 mphMostly Cloudy
7:00 PM75.2 °F59.0 °F57 %29.95 in6.2 miVariable3.5 mphMostly Cloudy
7:30 PM75.2 °F59.0 °F57 %29.98 in6.2 miVariable2.3 mphMostly Cloudy
8:00 PM75.0 °F59.0 °F49 %29.99 in12.0 miNE (40°)5.8 mphMostly Cloudy
8:00 PM75.2 °F59.0 °F57 %29.98 in6.2 miNE (40°)5.8 mphMostly Cloudy
8:30 PM75.2 °F59.0 °F57 %29.98 in6.2 miNE (50°)3.5 mphMostly Cloudy
9:00 PM73.4 °F60.8 °F65 %29.98 in6.2 miEast (90°)2.3 mphMostly Cloudy
9:30 PM73.4 °F60.8 °F65 %29.98 in6.2 miVariable2.3 mphMostly Cloudy
10:00 PM73.4 °F60.8 °F65 %29.98 in6.2 miEast (80°)3.5 mphMostly Cloudy
10:30 PM73.4 °F59.0 °F61 %29.98 in6.2 miENE (70°)3.5 mphMostly Cloudy
11:00 PM73.0 °F60.0 °F54 %29.99 in12.0 miENE (70°)2.3 mphMostly Cloudy
11:00 PM73.4 °F59.0 °F61 %29.98 in6.2 miVariable2.3 mphMostly Cloudy
11:30 PM73.4 °F59.0 °F61 %29.98 in6.2 miEast (90°)3.5 mphMostly Cloudy
Hourly data recorded from NTAA, located miles away from Papeete, French Polynesia







STORIES FROM OUR PARTNERS